Regional Weather Roundup
Issued by NWS

Home | Current Version | Previous Version | Text Only | Print | Product List | Glossary Off
Versions: 1 2 3 4 5 6 7 8 9 10 11 12 13 14 15 16 17 18 19 20 21 22 23 24 25 26 27 28 29 30 31 32 33 34 35 36 37 38 39 40 41 42 43 44 45 46 47 48 49 50

000
ASUS43 KIND 210759
RWRIN

WEATHER ROUNDUP FOR INDIANA
NATIONAL WEATHER SERVICE INDIANAPOLIS IN
300 AM EST WED FEB 21 2018

NOTE: "FAIR" INDICATES FEW OR NO CLOUDS BELOW 12,000 FEET WITH NO
SIGNIFICANT WEATHER AND/OR OBSTRUCTIONS TO VISIBILITY.

* - STATION DOES NOT REPORT WEATHER SUCH AS PRECIPITATION OR FOG.

+ - STATION NOT QUALITY CONTROLLED BY THE NATIONAL WEATHER SERVICE.
    USE DATA WITH CAUTION...ESPECIALLY DEWPOINT AND RELATIVE
    HUMIDITY OBSERVATIONS.

INZ001>003-010>013-019-020-210900-
NORTHWEST INDIANA

CITY           SKY/WX    TMP DP  RH WIND       PRES   REMARKS
MONTICELLO +   LGT RAIN  39  38  94 N15       30.17R WCI  31

$$

LMZ046-743>745-210900-
SOUTHERN LAKE MICHIGAN

STATION/POSITION TIME  TEMP    WIND        PRES    WAVE
                       AIR SEA DIR/SP/G            HT
                 (UTC) (F)     (DEG/KT/KT) (MB)    (FT)
BURNS HARBOR     0740   33     330/ 13/ 17 1023.0R
MICHIGAN CITY    0730   32     310/ 15/ 16   N/A

$$

INZ004-005-014>016-021>024-210900-
NORTH CENTRAL INDIANA

CITY           SKY/WX    TMP DP  RH WIND       PRES   REMARKS
GOSHEN         LGT RAIN  39  37  92 NW16G22   30.15R WCI  30
PERU/GRISSOM   RAIN      42  42 100 NW15      30.14R
SOUTH BEND     RAIN      35  34  96 N14       30.16S WCI  26
WARSAW +       RAIN      37  37 100 N10       30.15R WCI  30

$$

INZ006>009-017-018-025>027-210900-
NORTHEAST INDIANA

CITY           SKY/WX    TMP DP  RH WIND       PRES   REMARKS
AUBURN +       LGT RAIN  45  43  93 NW10      30.10R
FORT WAYNE     RAIN      48  46  93 NW14      30.10R
KENDALLVILLE + LGT RAIN  41  41 100 NW9       30.10F

$$

INZ028-029-035-036-043>045-051>053-210900-
WEST CENTRAL INDIANA

CITY           SKY/WX    TMP DP  RH WIND       PRES   REMARKS
GREENCASTLE +  RAIN      43  41  93 NW7G18    30.17R
LAFAYETTE      RAIN      39  38  96 NW9       30.18R WCI  33
TERRE HAUTE    LGT RAIN  40  39  97 NW15G24   30.21R WCI  32

$$

INZ030>032-037>040-046>048-054>057-064-065-210900-
CENTRAL INDIANA

CITY           SKY/WX    TMP DP  RH WIND       PRES   REMARKS
GREENWOOD *+   CLOUDY    55 -38   2 N14       30.08R
INDIANAPOLIS   HVY RAIN  50  49  96 NW12G24   30.13R FOG
-EAGLE CREEK   HVY RAIN  49  47  93 NW6       30.13R FOG
KOKOMO +       LGT RAIN  43  43 100 NW15      30.14R
MT COMFORT *+  CLOUDY    54  54 100 N8        30.09R
SHELBYVILLE    CLOUDY    63  55  75 NW13      30.04R

$$

INZ033-034-041-042-049-050-058-059-210900-
EAST CENTRAL INDIANA

CITY           SKY/WX    TMP DP  RH WIND       PRES   REMARKS
MUNCIE         RAIN      58  55  90 NW10      30.09R FOG
RICHMOND +     FAIR      61  59  94 S17       30.08S

$$

INZ060-061-067>069-081>083-085>088-210900-
SOUTHWEST INDIANA

CITY           SKY/WX    TMP DP  RH WIND       PRES   REMARKS
EVANSVILLE     HVY RAIN  48  48 100 NW13G21   30.18R FOG
HUNTINGBURG +  LGT RAIN  57  55  93 NW17      30.14R

$$

INZ062-063-066-070>080-084-089>092-210900-
SOUTH CENTRAL AND SOUTHEAST INDIANA

CITY           SKY/WX    TMP DP  RH WIND       PRES   REMARKS
BLOOMINGTON    RAIN      57  55  93 NW8G22    30.12R FOG
FRENCH LICK *+ CLOUDY    66  54  63 W16G30    30.12R
MADISON *+     MOCLDY    68  57  68 S15G24    30.11R
SEYMOUR +      MOCLDY    70  57  64 S18       30.06S

$$





USA.gov is the U.S. government's official web portal to all federal, state and local government web resources and services.